Theta_e
344 344 344 345 347 347 347 347 347 348 348 348 348 349 348 347 345 348 347 348 348 348 346 347 348 348 347 346 346 339 343 345 345
342 343 343 342 345 346 345 345 346 347 348 350 350 349 347 348 350 348 347 346 348 349 347 348 348 348 348 343 344 345 344 344 346
341 342 342 341 340 341 340 341 343 344 350 351 352 351 348 347 347 348 347 349 351 347 348 348 348 347 343 339 335 337 337 339 341
342 341 342 342 342 342 342 343 344 341 341 347 349 345 348 342 340 343 338 343 343 344 350 349 346 339 337 337 338 337 337 336 332
343 342 343 343 343 342 346 347 345 340 337 338 336 339 342 339 338 336 336 346 348 348 348 344 344 342 339 339 340 340 339 339 337
342 343 343 343 343 341 341 340 338 337 337 337 338 335 334 334 333 335 332 344 347 346 345 341 341 340 340 337 332 331 331 328 327
345 343 344 343 340 337 337 337 338 339 339 338 338 335 334 340 339 336 338 344 344 345 343 341 337 326 325 326 325 327 328 327 325
342 337 343 343 340 340 340 341 340 339 338 338 340 340 341 341 343 342 343 342 340 335 328 328 328 328 328 327 327 327 326 325 325
338 337 338 340 342 340 340 342 341 339 338 341 342 342 341 340 333 334 333 331 332 332 332 332 331 331 331 331 331 331 330 329 328
344 342 337 340 341 340 340 339 338 337 335 334 333 334 334 334 334 334 333 332 333 333 333 333 333 333 334 334 333 333 332 329 327
342 343 343 342 341 339 339 338 338 338 337 336 334 334 334 335 335 334 334 334 334 335 335 335 335 336 336 334 332 331 329 328 327
344 344 343 341 341 341 339 339 337 337 335 334 334 334 333 333 333 334 334 334 334 333 333 333 332 331 330 330 329 328 327 325 323
342 338 339 339 338 338 337 335 333 334 333 332 333 332 331 330 330 328 327 326 325 324 324 324 323 323 321 320 318 316 315 317 320
338 336 334 333 333 332 331 331 330 329 328 327 325 323 319 315 313 313 313 314 315 315 315 315 314 313 314 315 316 316 317 316 319
333 330 327 326 327 326 325 324 322 319 315 313 313 314 314 312 310 308 306 306 306 306 306 306 306 306 306 306 307 307 310 316 317
329 327 325 324 322 320 317 313 312 313 314 314 311 308 306 306 305 305 305 306 307 307 307 307 307 307 307 307 308 308 308 308 308
326 325 324 321 318 314 312 313 312 311 310 308 306 305 305 305 304 305 305 305 305 306 308 308 307 306 306 306 306 306 307 308 308
323 320 318 315 312 312 313 310 308 306 305 305 306 306 306 305 305 304 305 304 304 305 306 306 305 305 304 304 304 305 307 307 308
318 316 313 312 312 310 308 307 306 304 304 304 305 306 305 306 306 306 305 305 304 304 306 307 307 306 304 304 303 303 305 306 306
315 312 312 311 307 307 307 307 306 306 304 305 306 305 306 306 306 305 305 304 304 305 305 304 305 305 305 303 303 302 303 303 304
Wind_Speed
33 29 17 10 12 16 20 25 26 24 26 28 26 23 21 19 19 19 18 17 17 15 13 8 7 8 8 9 9 7 8 12 12
12 13 13 11 11 12 11 13 15 18 20 21 26 25 23 23 24 24 21 20 19 18 15 12 11 9 8 7 6 7 8 9 9
7 14 13 11 11 11 3 4 5 8 13 22 24 26 28 18 17 15 22 28 26 24 20 12 11 8 5 3 2 4 4 7 9
1 7 6 8 8 6 3 3 4 3 1 3 7 10 22 16 13 22 35 31 23 22 15 11 9 7 6 7 7 9 10 12 13
4 7 6 8 5 5 8 10 11 10 10 5 4 6 11 21 32 41 42 40 24 19 13 11 10 10 10 10 13 15 16 16 17
6 7 6 6 2 4 7 6 8 7 8 10 4 5 7 11 12 21 41 25 15 14 13 9 9 11 14 16 17 18 20 20 19
5 3 4 3 3 4 9 8 6 5 8 18 7 6 9 9 10 18 30 22 16 12 9 9 11 14 16 16 17 17 18 18 20
7 4 3 6 9 7 2 7 14 2 3 11 10 4 3 5 10 13 12 8 9 9 10 10 13 15 18 19 20 20 22 23 25
4 2 7 8 5 6 12 16 17 17 16 13 12 9 7 9 11 11 12 14 11 12 14 16 17 19 20 21 22 23 24 26 29
8 7 8 5 4 5 7 9 11 11 10 10 11 12 13 12 9 10 13 15 17 19 20 21 22 23 24 25 26 28 29 31 34
7 7 9 8 5 4 2 1 3 5 7 9 10 11 12 12 14 14 15 17 19 20 22 23 25 26 27 29 30 32 34 36 37
9 8 6 6 6 6 7 7 10 12 12 14 14 12 9 10 13 16 18 20 22 24 26 28 29 31 33 35 37 39 39 38 37
9 7 7 5 6 9 10 11 11 10 10 8 8 9 11 13 16 19 22 24 26 28 30 33 35 38 39 40 41 40 37 34 34
13 14 13 14 15 15 14 10 8 7 7 8 9 12 14 15 16 16 18 19 20 23 25 28 29 32 31 31 32 34 31 30 31
21 19 18 13 9 7 4 3 4 7 8 7 7 5 4 3 5 8 11 14 16 19 22 26 27 30 31 30 31 30 29 29 28
19 16 12 7 2 0 2 4 5 4 2 1 1 2 3 6 8 11 15 18 21 23 24 26 28 28 31 33 33 31 28 26 25
13 9 4 3 3 3 3 4 5 6 4 3 1 1 5 8 12 14 19 24 28 31 30 30 29 31 33 35 35 34 34 32 32
6 3 4 5 5 4 3 3 4 4 3 2 3 5 8 11 13 16 24 29 30 35 35 30 28 30 31 32 34 32 29 32 35
3 4 4 3 2 2 3 4 5 7 7 8 9 8 12 16 20 24 29 35 39 38 42 34 26 26 28 29 29 33 34 36 38
3 2 1 1 2 3 4 4 8 11 10 9 9 12 15 20 24 29 31 36 39 45 44 37 35 33 30 29 30 28 27 30 31
Wind_Direction
228 219 203 188 216 239 231 239 243 253 255 250 247 242 248 250 255 250 250 258 269 273 273 276 269 275 285 275 293 288 260 257 259
195 174 174 156 156 187 179 216 233 231 235 246 245 246 243 245 248 261 259 255 261 261 266 271 258 256 246 262 267 274 265 266 276
118 116 164 148 169 193 192 210 239 265 229 223 233 229 228 232 260 249 293 269 259 266 263 264 250 239 224 237 258 295 304 304 301
174 131 156 160 154 155 124 212 219 253 346 245 237 300 243 232 274 266 312 272 269 268 261 259 225 208 231 264 284 293 297 299 298
65 74 99 123 160 138 108 105 113 83 46 45 29 306 255 267 263 263 289 260 261 257 247 227 229 246 267 279 286 286 284 286 289
324 35 71 87 121 201 204 139 74 52 79 30 86 54 51 9 344 225 220 259 249 232 224 228 253 275 282 286 288 289 287 289 291
276 9 47 130 354 323 212 210 185 138 290 298 341 89 61 92 93 163 205 246 223 218 230 251 275 285 293 299 307 305 297 296 299
268 307 161 150 55 51 349 249 204 162 251 184 212 168 182 116 131 182 203 190 226 233 251 274 288 289 296 297 299 300 296 298 303
193 206 203 164 77 91 78 80 104 113 100 107 179 213 190 149 127 171 203 223 242 264 277 282 286 286 285 283 282 284 286 292 298
177 168 158 147 144 117 96 91 94 104 108 116 128 136 146 167 195 222 238 253 263 269 268 262 258 261 265 268 273 276 280 288 295
179 162 160 181 201 204 226 227 174 184 175 178 182 188 196 209 220 229 239 248 255 260 262 263 265 263 265 269 273 277 282 287 292
189 185 183 179 189 214 221 209 194 193 179 172 175 184 206 234 256 265 270 274 275 275 273 273 273 275 278 278 280 283 286 289 289
169 154 130 138 145 161 177 168 152 168 183 193 226 251 265 274 278 281 282 282 282 282 285 285 284 284 282 284 287 286 289 288 283
151 143 139 144 150 156 156 163 184 216 242 258 273 280 282 287 291 295 295 296 298 301 298 295 294 292 293 292 293 291 289 281 276
148 146 144 150 159 165 171 217 261 273 269 274 279 280 284 313 316 318 321 320 316 314 309 303 299 299 298 294 285 283 283 278 271
149 151 154 151 168 338 315 319 317 308 310 20 57 93 60 38 13 356 349 342 335 329 321 311 308 305 299 299 299 295 289 289 291
156 165 190 245 297 313 340 358 7 17 37 54 111 43 359 349 342 350 357 354 354 351 341 328 317 309 305 302 301 301 301 302 301
170 217 278 297 307 319 354 30 61 61 42 2 312 324 341 341 342 348 351 349 350 350 346 332 316 309 303 301 300 302 298 288 287
221 275 297 315 334 351 20 61 53 11 346 335 331 330 331 338 342 340 340 342 342 342 341 336 325 321 317 308 297 293 282 278 277
216 247 266 28 30 38 51 58 24 7 348 334 331 331 337 339 342 341 338 338 339 337 340 342 335 328 323 319 318 315 289 268 271